SKW223 KSYR-KIAD

Flight info

Callsign SKW223
Flight time 0h 56m
Altitude 36000
Route SYR PTAKI STUBN PSB WAYNZ1
Aircraft E75L/M-SDE3GILORVW/S

Departure

Time 2026-04-25 21:38
Airport Syracuse Hancock International Airport (KSYR)

Arrival

Time 2026-04-25 22:35
Airport Washington Dulles International Airport (KIAD)
Time Latitude Longitude Altitude Speed Heading
2026-04-25 21:17 43.11347 -76.10945 417 ft 0 kts 201°
2026-04-25 21:26 43.11353 -76.10942 412 ft 2 kts 199°
2026-04-25 21:26 43.11372 -76.10937 418 ft 3 kts 179°
2026-04-25 21:27 43.11390 -76.10943 417 ft 3 kts 140°
2026-04-25 21:27 43.11397 -76.10961 416 ft 1 kts 90°
2026-04-25 21:27 43.11397 -76.10964 416 ft 2 kts 89°
2026-04-25 21:30 43.11397 -76.10949 416 ft 5 kts 89°
2026-04-25 21:30 43.11398 -76.10908 419 ft 7 kts 89°
2026-04-25 21:31 43.11401 -76.10790 419 ft 10 kts 97°
2026-04-25 21:31 43.11351 -76.10737 416 ft 9 kts 174°
2026-04-25 21:31 43.11290 -76.10733 417 ft 10 kts 177°
2026-04-25 21:31 43.11203 -76.10727 419 ft 15 kts 178°
2026-04-25 21:32 43.11095 -76.10721 419 ft 16 kts 177°
2026-04-25 21:32 43.11020 -76.10734 421 ft 3 kts 214°
2026-04-25 21:32 43.11002 -76.10815 425 ft 13 kts 268°
2026-04-25 21:32 43.10998 -76.10950 427 ft 15 kts 267°
2026-04-25 21:33 43.10995 -76.11090 429 ft 16 kts 267°
2026-04-25 21:33 43.10990 -76.11258 427 ft 20 kts 267°
2026-04-25 21:33 43.10982 -76.11457 421 ft 22 kts 267°
2026-04-25 21:33 43.10975 -76.11669 424 ft 20 kts 267°
2026-04-25 21:34 43.10969 -76.11850 421 ft 18 kts 268°
2026-04-25 21:34 43.10964 -76.12019 424 ft 17 kts 268°
2026-04-25 21:34 43.10958 -76.12182 426 ft 17 kts 267°
2026-04-25 21:34 43.10953 -76.12351 428 ft 18 kts 268°
2026-04-25 21:35 43.10948 -76.12508 433 ft 15 kts 267°
2026-04-25 21:35 43.10926 -76.12619 424 ft 0 kts 217°
2026-04-25 21:36 43.10922 -76.12622 427 ft 3 kts 214°
2026-04-25 21:37 43.10897 -76.12630 430 ft 5 kts 174°
2026-04-25 21:37 43.10880 -76.12623 431 ft 2 kts 143°
2026-04-25 21:37 43.10841 -76.12561 432 ft 9 kts 123°
2026-04-25 21:37 43.10825 -76.12485 431 ft 8 kts 88°
2026-04-25 21:38 43.10836 -76.12141 424 ft 79 kts 88°
2026-04-25 21:38 43.10875 -76.11014 487 ft 151 kts 89°
2026-04-25 21:38 43.10932 -76.09378 956 ft 191 kts 88°
2026-04-25 21:38 43.10995 -76.07615 1253 ft 177 kts 89°
2026-04-25 21:39 43.11065 -76.05860 1279 ft 200 kts 88°
2026-04-25 21:39 43.11137 -76.03958 2442 ft 198 kts 91°
2026-04-25 21:39 43.11208 -76.02053 3510 ft 202 kts 91°
2026-04-25 21:39 43.11288 -75.99999 3977 ft 228 kts 88°
2026-04-25 21:40 43.11733 -75.97837 4090 ft 250 kts 60°
2026-04-25 21:40 43.13045 -75.96230 4076 ft 262 kts 29°
2026-04-25 21:40 43.14853 -75.95726 4240 ft 275 kts 354°
2026-04-25 21:40 43.16672 -75.96507 5212 ft 282 kts 332°
2026-04-25 21:41 43.18055 -75.98392 6160 ft 286 kts 300°
2026-04-25 21:41 43.18569 -76.00947 7057 ft 285 kts 269°
2026-04-25 21:41 43.18398 -76.03644 8038 ft 283 kts 260°
2026-04-25 21:41 43.18080 -76.06345 8914 ft 287 kts 259°
2026-04-25 21:42 43.17753 -76.09069 9853 ft 292 kts 259°
2026-04-25 21:42 43.17381 -76.11855 10447 ft 308 kts 256°
2026-04-25 21:42 43.16955 -76.14779 11154 ft 317 kts 256°
2026-04-25 21:42 43.16464 -76.17751 12013 ft 325 kts 255°
2026-04-25 21:43 43.15561 -76.20572 13054 ft 324 kts 234°
2026-04-25 21:43 43.13848 -76.22552 14241 ft 326 kts 214°
2026-04-25 21:43 43.11895 -76.24172 15268 ft 330 kts 213°
2026-04-25 21:43 43.09900 -76.25796 16223 ft 336 kts 213°
2026-04-25 21:44 43.07870 -76.27435 17115 ft 342 kts 213°
2026-04-25 21:44 43.05822 -76.29074 17977 ft 348 kts 212°
2026-04-25 21:44 43.01570 -76.32458 19637 ft 358 kts 213°
2026-04-25 21:45 42.99412 -76.34167 20597 ft 358 kts 214°
2026-04-25 21:45 42.97950 -76.35326 21164 ft 360 kts 213°
2026-04-25 21:45 42.95053 -76.37590 22216 ft 364 kts 213°
2026-04-25 21:45 42.92837 -76.39310 22964 ft 367 kts 213°
2026-04-25 21:46 42.90604 -76.41035 23684 ft 371 kts 213°
2026-04-25 21:46 42.88343 -76.42772 24307 ft 374 kts 213°
2026-04-25 21:46 42.86067 -76.44511 24950 ft 376 kts 213°
2026-04-25 21:46 42.83774 -76.46256 25610 ft 378 kts 213°
2026-04-25 21:47 42.81483 -76.47993 26330 ft 378 kts 214°
2026-04-25 21:47 42.79191 -76.49723 27019 ft 378 kts 213°
2026-04-25 21:47 42.76883 -76.51453 27653 ft 380 kts 213°
2026-04-25 21:47 42.74551 -76.53192 28167 ft 383 kts 213°
2026-04-25 21:48 42.72201 -76.54940 28673 ft 386 kts 213°
2026-04-25 21:48 42.69874 -76.56662 29331 ft 384 kts 213°
2026-04-25 21:48 42.67553 -76.58370 28101 ft 385 kts 213°
2026-04-25 21:48 42.65108 -76.60160 27088 ft 405 kts 212°
2026-04-25 21:49 42.62651 -76.62015 27092 ft 401 kts 213°
2026-04-25 21:49 42.60242 -76.63867 27153 ft 396 kts 213°
2026-04-25 21:49 42.57855 -76.65700 27395 ft 393 kts 213°
2026-04-25 21:49 42.55478 -76.67520 27564 ft 392 kts 213°
2026-04-25 21:50 42.53106 -76.69337 27686 ft 391 kts 213°
2026-04-25 21:50 42.50737 -76.71146 27771 ft 391 kts 213°
2026-04-25 21:50 42.48368 -76.72956 27829 ft 390 kts 213°
2026-04-25 21:50 42.46803 -76.74148 27860 ft 390 kts 213°
2026-04-25 21:51 42.43647 -76.76554 27890 ft 387 kts 213°
2026-04-25 21:51 42.41298 -76.78343 27927 ft 387 kts 213°
2026-04-25 21:51 42.38975 -76.80114 27929 ft 388 kts 213°
2026-04-25 21:51 42.36624 -76.81898 27958 ft 387 kts 213°
2026-04-25 21:52 42.34277 -76.83680 27992 ft 387 kts 213°
2026-04-25 21:52 42.31928 -76.85461 27974 ft 387 kts 213°
2026-04-25 21:52 42.29571 -76.87248 27986 ft 387 kts 213°
2026-04-25 21:53 42.24870 -76.90801 27988 ft 386 kts 213°
2026-04-25 21:53 42.22527 -76.92572 27985 ft 386 kts 213°
2026-04-25 21:53 42.20184 -76.94340 27988 ft 386 kts 213°
2026-04-25 21:53 42.17840 -76.96109 27997 ft 386 kts 213°
2026-04-25 21:54 42.15497 -76.97874 27995 ft 386 kts 213°
2026-04-25 21:54 42.10839 -77.01381 28003 ft 386 kts 213°
2026-04-25 21:55 42.06228 -77.05070 28010 ft 385 kts 216°
2026-04-25 21:55 42.01678 -77.08893 27993 ft 385 kts 216°
2026-04-25 21:55 41.99400 -77.10802 27986 ft 385 kts 216°
2026-04-25 21:56 41.97128 -77.12704 27977 ft 385 kts 216°
2026-04-25 21:56 41.95621 -77.13963 27984 ft 385 kts 216°
2026-04-25 21:56 41.92571 -77.16510 27986 ft 385 kts 216°
2026-04-25 21:56 41.90293 -77.18407 27987 ft 385 kts 216°
2026-04-25 21:57 41.88018 -77.20299 28012 ft 383 kts 215°
2026-04-25 21:57 41.83557 -77.24000 29209 ft 369 kts 216°
2026-04-25 21:57 41.81384 -77.25798 30100 ft 363 kts 216°
2026-04-25 21:58 41.79251 -77.27563 30834 ft 358 kts 216°
2026-04-25 21:58 41.77145 -77.29305 31498 ft 354 kts 216°
2026-04-25 21:58 41.75065 -77.31025 32152 ft 350 kts 216°
2026-04-25 21:58 41.73006 -77.32726 32773 ft 346 kts 216°
2026-04-25 21:59 41.70962 -77.34409 33361 ft 343 kts 216°
2026-04-25 21:59 41.68935 -77.36084 33801 ft 343 kts 216°
2026-04-25 21:59 41.66899 -77.37765 34196 ft 343 kts 216°
2026-04-25 22:00 41.62923 -77.41039 33287 ft 335 kts 216°
2026-04-25 22:00 41.60938 -77.42674 32618 ft 335 kts 216°
2026-04-25 22:00 41.58946 -77.44316 31909 ft 337 kts 216°
2026-04-25 22:00 41.56943 -77.45966 31180 ft 339 kts 216°
2026-04-25 22:01 41.54919 -77.47627 30421 ft 343 kts 215°
2026-04-25 22:01 41.52869 -77.49314 29529 ft 349 kts 215°
2026-04-25 22:01 41.50785 -77.51028 28523 ft 355 kts 215°
2026-04-25 22:01 41.49386 -77.52180 27838 ft 359 kts 215°
2026-04-25 22:02 41.46496 -77.54556 26334 ft 370 kts 216°
2026-04-25 22:02 41.44274 -77.56373 25106 ft 379 kts 216°
2026-04-25 22:02 41.41997 -77.58239 24024 ft 387 kts 216°
2026-04-25 22:02 41.39734 -77.60092 23040 ft 388 kts 216°
2026-04-25 22:03 41.37429 -77.61969 21981 ft 388 kts 216°
2026-04-25 22:03 41.35135 -77.63849 21019 ft 386 kts 216°
2026-04-25 22:03 41.32845 -77.65706 20124 ft 384 kts 216°
2026-04-25 22:03 41.30584 -77.67556 19357 ft 378 kts 215°
2026-04-25 22:04 41.28350 -77.69377 18567 ft 376 kts 216°
2026-04-25 22:04 41.26139 -77.71182 18180 ft 362 kts 215°
2026-04-25 22:04 41.24020 -77.72902 18363 ft 361 kts 216°
2026-04-25 22:04 41.21865 -77.74658 18382 ft 365 kts 216°
2026-04-25 22:05 41.19687 -77.76428 18402 ft 369 kts 215°
2026-04-25 22:05 41.17483 -77.78217 18368 ft 372 kts 215°
2026-04-25 22:05 41.15269 -77.80010 18289 ft 374 kts 215°
2026-04-25 22:05 41.13051 -77.81808 18255 ft 374 kts 215°
2026-04-25 22:06 41.10850 -77.83589 18246 ft 369 kts 215°
2026-04-25 22:06 41.08659 -77.85362 18252 ft 369 kts 215°
2026-04-25 22:06 41.06462 -77.87136 18254 ft 370 kts 215°
2026-04-25 22:06 41.04264 -77.88908 18260 ft 370 kts 215°
2026-04-25 22:07 41.02092 -77.90658 18252 ft 370 kts 215°
2026-04-25 22:07 41.00601 -77.91860 18256 ft 370 kts 215°
2026-04-25 22:07 40.97684 -77.94213 18262 ft 370 kts 215°
2026-04-25 22:07 40.95476 -77.95989 18260 ft 370 kts 215°
2026-04-25 22:08 40.93207 -77.97700 18259 ft 382 kts 208°
2026-04-25 22:08 40.90620 -77.98503 18263 ft 387 kts 186°
2026-04-25 22:08 40.87931 -77.98075 18283 ft 393 kts 172°
2026-04-25 22:08 40.85261 -77.97268 18271 ft 394 kts 171°
2026-04-25 22:09 40.82586 -77.96482 18253 ft 394 kts 171°
2026-04-25 22:09 40.79964 -77.95703 18101 ft 378 kts 172°
2026-04-25 22:09 40.77481 -77.94955 17685 ft 365 kts 171°
2026-04-25 22:09 40.75047 -77.94222 17292 ft 354 kts 171°
2026-04-25 22:10 40.72677 -77.93518 16900 ft 344 kts 171°
2026-04-25 22:10 40.70359 -77.92854 16501 ft 335 kts 172°
2026-04-25 22:10 40.68092 -77.92246 16073 ft 329 kts 172°
2026-04-25 22:10 40.65863 -77.91624 15630 ft 325 kts 171°
2026-04-25 22:11 40.63666 -77.91001 15178 ft 321 kts 171°
2026-04-25 22:11 40.62227 -77.90588 14885 ft 319 kts 170°
2026-04-25 22:11 40.60062 -77.89959 14414 ft 318 kts 170°
2026-04-25 22:11 40.57909 -77.89329 13923 ft 316 kts 169°
2026-04-25 22:12 40.55774 -77.88701 13679 ft 307 kts 169°
2026-04-25 22:12 40.53708 -77.88091 13274 ft 302 kts 169°
2026-04-25 22:12 40.51667 -77.87488 12862 ft 299 kts 169°
2026-04-25 22:12 40.50328 -77.87096 12598 ft 297 kts 169°
2026-04-25 22:13 40.47641 -77.86312 11988 ft 294 kts 170°
2026-04-25 22:13 40.45699 -77.85744 12101 ft 278 kts 170°
2026-04-25 22:13 40.43793 -77.85188 12368 ft 292 kts 170°
2026-04-25 22:13 40.41797 -77.84609 12392 ft 296 kts 170°
2026-04-25 22:14 40.39793 -77.84025 12426 ft 301 kts 170°
2026-04-25 22:14 40.37734 -77.83428 12456 ft 305 kts 170°
2026-04-25 22:14 40.35652 -77.82822 12335 ft 310 kts 169°
2026-04-25 22:14 40.33536 -77.82208 12109 ft 306 kts 169°
2026-04-25 22:15 40.31467 -77.81606 12149 ft 305 kts 170°
2026-04-25 22:15 40.29384 -77.81000 12167 ft 307 kts 170°
2026-04-25 22:15 40.27294 -77.80394 12165 ft 307 kts 170°
2026-04-25 22:16 40.23107 -77.79178 12158 ft 309 kts 170°
2026-04-25 22:16 40.21009 -77.78569 12159 ft 309 kts 170°
2026-04-25 22:16 40.18912 -77.77962 12169 ft 309 kts 170°
2026-04-25 22:16 40.16811 -77.77340 12155 ft 308 kts 170°
2026-04-25 22:17 40.14741 -77.76746 12176 ft 309 kts 170°
2026-04-25 22:17 40.12612 -77.76132 12167 ft 309 kts 170°
2026-04-25 22:17 40.10512 -77.75526 12170 ft 309 kts 170°
2026-04-25 22:17 40.08411 -77.74921 12167 ft 309 kts 170°
2026-04-25 22:18 40.06342 -77.74324 12168 ft 308 kts 170°
2026-04-25 22:18 40.04246 -77.73723 12232 ft 312 kts 170°
2026-04-25 22:18 40.02089 -77.73100 12243 ft 316 kts 170°
2026-04-25 22:18 39.99954 -77.72484 12240 ft 313 kts 170°
2026-04-25 22:19 39.97836 -77.71872 12234 ft 309 kts 170°
2026-04-25 22:19 39.95786 -77.71280 12183 ft 294 kts 170°
2026-04-25 22:19 39.93831 -77.70717 12021 ft 283 kts 171°
2026-04-25 22:19 39.91923 -77.70168 12062 ft 282 kts 171°
2026-04-25 22:20 39.89949 -77.69607 11911 ft 299 kts 171°
2026-04-25 22:20 39.87894 -77.69017 11575 ft 302 kts 170°
2026-04-25 22:20 39.85840 -77.68426 11318 ft 301 kts 170°
2026-04-25 22:20 39.83791 -77.67838 11074 ft 301 kts 171°
2026-04-25 22:21 39.81775 -77.67260 10846 ft 300 kts 171°
2026-04-25 22:21 39.79735 -77.66675 10606 ft 299 kts 171°
2026-04-25 22:21 39.77699 -77.66092 10363 ft 299 kts 171°
2026-04-25 22:21 39.75670 -77.65512 10149 ft 297 kts 171°
2026-04-25 22:22 39.73665 -77.64939 10060 ft 293 kts 171°
2026-04-25 22:22 39.71659 -77.64475 10020 ft 294 kts 173°
2026-04-25 22:22 39.69642 -77.64017 9967 ft 294 kts 173°
2026-04-25 22:22 39.67681 -77.63237 9988 ft 297 kts 160°
2026-04-25 22:23 39.65780 -77.62145 9929 ft 301 kts 159°
2026-04-25 22:23 39.63844 -77.61039 9639 ft 300 kts 159°
2026-04-25 22:23 39.61947 -77.59957 9584 ft 297 kts 159°
2026-04-25 22:23 39.60050 -77.58877 9480 ft 298 kts 160°
2026-04-25 22:24 39.58158 -77.57800 9385 ft 297 kts 160°
2026-04-25 22:24 39.56263 -77.56727 9301 ft 297 kts 159°
2026-04-25 22:24 39.54362 -77.55652 9208 ft 297 kts 159°
2026-04-25 22:24 39.52477 -77.54586 9116 ft 295 kts 160°
2026-04-25 22:25 39.50594 -77.53521 9029 ft 296 kts 160°
2026-04-25 22:25 39.48736 -77.52469 8935 ft 294 kts 160°
2026-04-25 22:25 39.46856 -77.51410 8845 ft 294 kts 160°
2026-04-25 22:25 39.44980 -77.50353 8736 ft 294 kts 160°
2026-04-25 22:26 39.43113 -77.49295 8633 ft 293 kts 160°
2026-04-25 22:26 39.41250 -77.48233 8556 ft 292 kts 160°
2026-04-25 22:26 39.39374 -77.47184 8292 ft 292 kts 163°
2026-04-25 22:26 39.37418 -77.46768 8011 ft 280 kts 185°
2026-04-25 22:27 39.35491 -77.46851 7961 ft 277 kts 185°
2026-04-25 22:27 39.33565 -77.46869 7667 ft 279 kts 184°
2026-04-25 22:27 39.31595 -77.46900 6983 ft 286 kts 185°
2026-04-25 22:27 39.29613 -77.46946 6578 ft 281 kts 185°
2026-04-25 22:28 39.27666 -77.46984 6166 ft 277 kts 185°
2026-04-25 22:28 39.25767 -77.47014 5751 ft 267 kts 185°
2026-04-25 22:28 39.23993 -77.47039 5425 ft 243 kts 185°
2026-04-25 22:28 39.22372 -77.47062 5102 ft 225 kts 185°
2026-04-25 22:29 39.20855 -77.47087 4795 ft 211 kts 186°
2026-04-25 22:29 39.19428 -77.47112 4534 ft 199 kts 185°
2026-04-25 22:29 39.18099 -77.47138 4282 ft 189 kts 186°
2026-04-25 22:30 39.15555 -77.47187 3870 ft 178 kts 185°
2026-04-25 22:30 39.14329 -77.47202 3605 ft 175 kts 184°
2026-04-25 22:30 39.13120 -77.47217 3369 ft 172 kts 184°
2026-04-25 22:30 39.12311 -77.47224 3207 ft 172 kts 182°
2026-04-25 22:31 39.10742 -77.47241 2911 ft 167 kts 181°
2026-04-25 22:31 39.09597 -77.47262 2691 ft 162 kts 179°
2026-04-25 22:31 39.08480 -77.47285 2511 ft 158 kts 179°
2026-04-25 22:31 39.07392 -77.47304 2289 ft 154 kts 178°
2026-04-25 22:32 39.06338 -77.47318 2150 ft 151 kts 177°
2026-04-25 22:32 39.05260 -77.47327 1938 ft 157 kts 176°
2026-04-25 22:32 39.04161 -77.47343 1681 ft 158 kts 175°
2026-04-25 22:32 39.03066 -77.47356 1487 ft 154 kts 176°
2026-04-25 22:33 39.02037 -77.47374 1365 ft 154 kts 175°
2026-04-25 22:33 39.00952 -77.47386 1092 ft 158 kts 176°
2026-04-25 22:33 38.99852 -77.47403 884 ft 159 kts 177°
2026-04-25 22:33 38.98737 -77.47418 660 ft 162 kts 176°
2026-04-25 22:34 38.97619 -77.47443 438 ft 160 kts 176°
2026-04-25 22:34 38.96521 -77.47448 299 ft 150 kts 174°
2026-04-25 22:34 38.95630 -77.47450 299 ft 104 kts 179°
2026-04-25 22:34 38.95062 -77.47468 293 ft 60 kts 178°
2026-04-25 22:35 38.94765 -77.47343 298 ft 18 kts 150°
2026-04-25 22:35 38.94749 -77.47332 295 ft 1 kts 150°
2026-04-25 22:35 38.94747 -77.47330 295 ft 0 kts 150°
2026-04-25 22:36 38.94717 -77.47309 298 ft 7 kts 150°
2026-04-25 22:36 38.94682 -77.47271 298 ft 6 kts 127°
2026-04-25 22:36 38.94673 -77.47200 299 ft 12 kts 91°
2026-04-25 22:37 38.94672 -77.47085 300 ft 13 kts 91°
2026-04-25 22:37 38.94671 -77.46971 300 ft 13 kts 89°
2026-04-25 22:37 38.94671 -77.46848 299 ft 15 kts 91°
2026-04-25 22:37 38.94669 -77.46709 300 ft 17 kts 90°
2026-04-25 22:38 38.94668 -77.46557 298 ft 16 kts 90°
2026-04-25 22:38 38.94667 -77.46412 298 ft 17 kts 91°
2026-04-25 22:38 38.94665 -77.46267 296 ft 16 kts 91°
2026-04-25 22:38 38.94663 -77.46116 295 ft 17 kts 91°
2026-04-25 22:39 38.94662 -77.45969 294 ft 17 kts 90°
2026-04-25 22:39 38.94661 -77.45820 294 ft 17 kts 90°
2026-04-25 22:39 38.94660 -77.45671 294 ft 16 kts 90°
2026-04-25 22:39 38.94668 -77.45529 298 ft 15 kts 89°
2026-04-25 22:40 38.94667 -77.45393 297 ft 15 kts 91°
2026-04-25 22:40 38.94666 -77.45260 298 ft 15 kts 90°
2026-04-25 22:40 38.94664 -77.45126 299 ft 15 kts 92°
2026-04-25 22:40 38.94663 -77.44998 300 ft 10 kts 90°
2026-04-25 22:41 38.94638 -77.44949 301 ft 6 kts 167°
2026-04-25 22:41 38.94609 -77.44947 302 ft 2 kts 179°
2026-04-25 22:41 38.94594 -77.44948 302 ft 2 kts 185°
2026-04-25 22:41 38.94590 -77.44949 302 ft 0 kts 185°